INTELSAT 25 (IS-25)

Last updated on Sun Jun 21 2026 00:03:04 GMT+0000 (Coordinated Universal Time)

1 33153U 08034A 26171.41325874 -.00000133 00000+0 00000+0 0 9997 2 33153 2.7194 80.3377 0003595 60.7301 23.6093 0.99033445 65727
UTC large
Height (km)
Speed (km/s)
/
Latitude / Longitude
Inclination (degrees)
Orbital Period (minutes)
Azimuth
Elevation
Range (km)
Doppler Factor

Next 0 passes for location: London (51.5072 / 0.1276)

No passes found over London.
INTELSAT 25 (IS-25)